Hourly Weather Al-Jadida

Today, 3 December, Thursday

Time Temperature Precipitation Wind Pressure Humidity
00:00 +17°C° 0 mm 5 mps 760 mmHg 75%
01:00 +18°C° 0 mm 4 mps 760 mmHg 76%
02:00 +18°C° 0 mm 4 mps 760 mmHg 77%
03:00 +17°C° 0 mm 4 mps 760 mmHg 77%
04:00 +17°C° 0 mm 4 mps 760 mmHg 76%
05:00 +17°C° 0 mm 4 mps 760 mmHg 76%
06:00 +17°C° 0 mm 4 mps 760 mmHg 72%
07:00 +18°C° 0 mm 3 mps 760 mmHg 67%
08:00 +18°C° 0 mm 2 mps 760 mmHg 63%
09:00 +19°C° 0 mm 2 mps 760 mmHg 58%
10:00 +20°C° 0 mm 2 mps 761 mmHg 53%
11:00 +22°C° 0 mm 1 mps 761 mmHg 48%
12:00 +21°C° 0 mm 2 mps 760 mmHg 52%
13:00 +21°C° 0 mm 3 mps 760 mmHg 56%
14:00 +21°C° 0 mm 4 mps 759 mmHg 61%
15:00 +20°C° 0 mm 3 mps 760 mmHg 66%
16:00 +19°C° 0 mm 3 mps 760 mmHg 72%
17:00 +18°C° 0 mm 3 mps 760 mmHg 77%
18:00 +18°C° 0 mm 3 mps 760 mmHg 79%
19:00 +18°C° 0 mm 2 mps 760 mmHg 80%
20:00 +17°C° 0 mm 2 mps 761 mmHg 82%
21:00 +17°C° 0 mm 2 mps 761 mmHg 83%
22:00 +17°C° 0 mm 2 mps 761 mmHg 84%
23:00 +17°C° 0 mm 2 mps 760 mmHg 86%

Tomorrow, 4 December, Friday

Time Temperature Precipitation Wind Pressure Humidity
00:00 +17°C° 0 mm 3 mps 760 mmHg 86%
01:00 +17°C° 0 mm 4 mps 760 mmHg 86%
02:00 +17°C° 0 mm 4 mps 760 mmHg 87%
03:00 +16°C° 0.2 mm 5 mps 760 mmHg 86%
04:00 +16°C° 0.2 mm 5 mps 760 mmHg 86%
05:00 +15°C° 0.2 mm 5 mps 760 mmHg 85%
06:00 +16°C° 0.1 mm 6 mps 760 mmHg 81%
07:00 +17°C° 0.1 mm 6 mps 760 mmHg 76%
08:00 +17°C° 0.1 mm 6 mps 760 mmHg 71%
09:00 +17°C° 0.1 mm 7 mps 760 mmHg 69%
10:00 +18°C° 0.1 mm 7 mps 760 mmHg 67%
11:00 +18°C° 0.1 mm 8 mps 760 mmHg 64%
12:00 +18°C° 0.1 mm 8 mps 759 mmHg 63%
13:00 +18°C° 0.1 mm 9 mps 759 mmHg 62%
14:00 +18°C° 0.1 mm 9 mps 758 mmHg 61%
15:00 +17°C° 0.3 mm 9 mps 758 mmHg 65%
16:00 +17°C° 0.3 mm 9 mps 758 mmHg 68%
17:00 +17°C° 0.3 mm 9 mps 758 mmHg 71%
18:00 +16°C° 0.4 mm 9 mps 759 mmHg 71%
19:00 +16°C° 0.4 mm 9 mps 759 mmHg 71%
20:00 +16°C° 0.4 mm 9 mps 759 mmHg 71%
21:00 +15°C° 0.1 mm 9 mps 759 mmHg 70%
22:00 +15°C° 0.1 mm 9 mps 759 mmHg 70%
23:00 +15°C° 0.1 mm 9 mps 760 mmHg 69%

Day after tomorrow, 5 December, Saturday

Time Temperature Precipitation Wind Pressure Humidity
00:00 +13°C° 0.2 mm 9 mps 760 mmHg 70%
01:00 +13°C° 0.2 mm 8 mps 760 mmHg 70%
02:00 +12°C° 0.2 mm 8 mps 760 mmHg 71%
03:00 +13°C° 0.2 mm 8 mps 760 mmHg 69%
04:00 +13°C° 0.2 mm 8 mps 760 mmHg 67%
05:00 +13°C° 0.2 mm 8 mps 760 mmHg 66%
06:00 +14°C° 0.3 mm 7 mps 760 mmHg 65%
07:00 +14°C° 0.3 mm 7 mps 761 mmHg 65%
08:00 +14°C° 0.3 mm 7 mps 761 mmHg 65%
09:00 +15°C° 0.1 mm 7 mps 761 mmHg 61%
10:00 +15°C° 0.1 mm 7 mps 762 mmHg 58%
11:00 +16°C° 0.1 mm 7 mps 762 mmHg 55%
12:00 +15°C° 0.1 mm 7 mps 761 mmHg 55%
13:00 +15°C° 0.1 mm 6 mps 761 mmHg 55%
14:00 +15°C° 0.1 mm 6 mps 761 mmHg 55%
15:00 +15°C° 0.1 mm 5 mps 761 mmHg 58%
16:00 +14°C° 0.1 mm 5 mps 761 mmHg 61%
17:00 +14°C° 0.1 mm 4 mps 762 mmHg 65%
18:00 +14°C° 0.1 mm 4 mps 762 mmHg 66%
19:00 +14°C° 0.1 mm 3 mps 762 mmHg 67%
20:00 +13°C° 0.1 mm 3 mps 763 mmHg 68%
21:00 +13°C° 0.1 mm 3 mps 763 mmHg 69%
22:00 +14°C° 0.1 mm 2 mps 763 mmHg 69%
23:00 +13°C° 0.1 mm 2 mps 763 mmHg 70%

6 December, Sunday

Time Temperature Precipitation Wind Pressure Humidity
00:00 +14°C° 0 mm 2 mps 763 mmHg 69%
01:00 +14°C° 0 mm 2 mps 763 mmHg 68%
02:00 +14°C° 0 mm 2 mps 762 mmHg 67%
03:00 +14°C° 0 mm 2 mps 762 mmHg 69%
04:00 +13°C° 0 mm 2 mps 762 mmHg 70%
05:00 +13°C° 0 mm 2 mps 762 mmHg 72%
06:00 +13°C° 0 mm 2 mps 762 mmHg 71%
07:00 +13°C° 0 mm 3 mps 763 mmHg 70%
08:00 +13°C° 0 mm 3 mps 763 mmHg 69%
09:00 +14°C° 0 mm 3 mps 763 mmHg 66%
10:00 +16°C° 0 mm 3 mps 763 mmHg 63%
11:00 +17°C° 0 mm 3 mps 763 mmHg 60%
12:00 +17°C° 0.1 mm 3 mps 763 mmHg 62%
13:00 +17°C° 0.1 mm 3 mps 763 mmHg 64%
14:00 +17°C° 0.1 mm 3 mps 762 mmHg 67%
15:00 +16°C° 0.1 mm 2 mps 763 mmHg 68%
16:00 +16°C° 0.1 mm 2 mps 763 mmHg 69%
17:00 +16°C° 0.1 mm 2 mps 763 mmHg 70%
18:00 +15°C° 0 mm 2 mps 763 mmHg 71%
19:00 +15°C° 0 mm 2 mps 764 mmHg 71%
20:00 +14°C° 0 mm 1 mps 764 mmHg 71%
21:00 +14°C° 0 mm 1 mps 764 mmHg 72%
22:00 +14°C° 0 mm 1 mps 764 mmHg 72%
23:00 +13°C° 0 mm 1 mps 764 mmHg 73%

7 December, Monday

Time Temperature Precipitation Wind Pressure Humidity
00:00 +13°C° 0 mm 1 mps 764 mmHg 74%
01:00 +13°C° 0 mm 1 mps 764 mmHg 75%
02:00 +13°C° 0 mm 1 mps 764 mmHg 76%
03:00 +13°C° 0 mm 1 mps 764 mmHg 76%
04:00 +12°C° 0 mm 1 mps 764 mmHg 77%
05:00 +12°C° 0 mm 1 mps 764 mmHg 77%
06:00 +13°C° 0 mm 1 mps 764 mmHg 74%
07:00 +14°C° 0 mm 2 mps 765 mmHg 72%
08:00 +13°C° 0 mm 3 mps 765 mmHg 70%
09:00 +15°C° 0 mm 2 mps 765 mmHg 66%
10:00 +16°C° 0 mm 2 mps 765 mmHg 62%
11:00 +17°C° 0 mm 2 mps 765 mmHg 58%
12:00 +18°C° 0 mm 2 mps 765 mmHg 58%
13:00 +18°C° 0 mm 2 mps 765 mmHg 58%
14:00 +18°C° 0 mm 2 mps 765 mmHg 58%
15:00 +17°C° 0 mm 2 mps 765 mmHg 63%
16:00 +16°C° 0 mm 1 mps 765 mmHg 67%
17:00 +15°C° 0 mm 1 mps 765 mmHg 72%
18:00 +15°C° 0 mm 1 mps 765 mmHg 73%
19:00 +14°C° 0 mm 1 mps 766 mmHg 74%
20:00 +14°C° 0 mm 1 mps 766 mmHg 75%
21:00 +14°C° 0 mm 1 mps 766 mmHg 76%
22:00 +14°C° 0 mm 1 mps 766 mmHg 77%
23:00 +14°C° 0 mm 2 mps 766 mmHg 78%

8 December, Tuesday

Time Temperature Precipitation Wind Pressure Humidity
00:00 +13°C° 0 mm 2 mps 766 mmHg 79%
01:00 +13°C° 0 mm 2 mps 766 mmHg 79%
02:00 +13°C° 0 mm 2 mps 766 mmHg 80%
03:00 +13°C° 0 mm 2 mps 766 mmHg 80%
04:00 +13°C° 0 mm 2 mps 766 mmHg 80%
05:00 +12°C° 0 mm 3 mps 766 mmHg 80%
06:00 +13°C° 0 mm 3 mps 766 mmHg 77%
07:00 +14°C° 0 mm 4 mps 767 mmHg 75%
08:00 +14°C° 0 mm 4 mps 767 mmHg 73%
09:00 +15°C° 0 mm 4 mps 767 mmHg 68%
10:00 +18°C° 0 mm 4 mps 767 mmHg 64%
11:00 +19°C° 0 mm 4 mps 767 mmHg 59%
12:00 +19°C° 0 mm 4 mps 767 mmHg 60%
13:00 +19°C° 0 mm 5 mps 766 mmHg 62%
14:00 +19°C° 0 mm 5 mps 766 mmHg 63%
15:00 +17°C° 0 mm 5 mps 766 mmHg 67%
16:00 +17°C° 0 mm 4 mps 766 mmHg 72%
17:00 +17°C° 0 mm 4 mps 767 mmHg 77%
18:00 +15°C° 0 mm 4 mps 767 mmHg 78%
19:00 +15°C° 0 mm 4 mps 767 mmHg 79%
20:00 +15°C° 0 mm 4 mps 767 mmHg 81%
21:00 +15°C° 0.1 mm 4 mps 767 mmHg 82%
22:00 +16°C° 0.1 mm 3 mps 767 mmHg 83%
23:00 +16°C° 0.1 mm 3 mps 767 mmHg 84%
Show more